www.pogodaiklimat.ru

Погода и климат >> Архив погоды >> Пакистан >> Sibi


ПОГОДА в Sibi

  • Прогноз погоды в Sibi
  • Монитор погоды в Sibi
  • Климат города

АРХИВ ПОГОДЫ в Sibi

Время (UTC), дата Ветер
(напр.,м/с)
 
Видим.   Явления Облачность Т
(С)
Тd
(С)
f
(%)
Тe
(С)
Тes
(С)
Комфортность P
(гПа)
Po
(гПа)
Тmin
(С)
Tmax
(С)
R
(мм)
R24
(мм)
S
(см)
06 19.05 штиль 0 10 км ясно +42.2 +20.2 28 +47 +73 опасность
перегрева
1000.3 1000.0
09 19.05 СВ 2 10 км ясно +45.6 +20.3 24 +51 +70 опасность
перегрева
997.7 998.0
12 19.05 ЮЗ 2 10 км 5/5 1050 м
[Sc]
+47.2 +20.5 22 +52 +55 опасность
перегрева
995.6 996.0 +48.0
15 19.05 ЮЗ 2 4000 м ясно +43.3 +19.4 26 +48 +48 опасность
перегрева
996.1 996.0
18 19.05 В 2 4000 м ясно +37.8 +20.4 36 +44 +44 опасность
перегрева
998.5 1000.0
21 19.05 ЮЗ 2 4000 м ясно +33.9 +20.8 46 +41 +41 опасность
перегрева
998.3 998.0
00 20.05 В 2 4000 м ясно +32.2 +18.2 43 +37 +37 очень
душно
998.0 983.3
03 20.05 штиль 0 4000 м мгла ясно +34.4 +19.6 42 +40 +47 очень
душно
1000.6 985.2 +28.1
06 20.05 ЮЗ 2 10 км 5/5 300 м
[Sc]
+37.8 +21.4 39 +45 +55 опасность
перегрева
1000.9 1000.0
09 20.05 ЮЗ 3 10 км 5/5 1200 м
[Sc]
+43.3 +21.4 29 +50 +58 опасность
перегрева
997.4 997.0
12 20.05 ЮЗ 1 4000 м 5/5 300 м
[Sc]
+38.1 +24.8 47 +51 +54 опасность
перегрева
996.8 998.2 +44.5
15 20.05 штиль 0 4000 м ясно +36.7 +23.8 48 +48 +48 опасность
перегрева
997.4 1000.0
18 20.05 СВ 1 4000 м ясно +35.6 +21.7 45 +44 +44 опасность
перегрева
998.5 999.0
21 20.05 СВ 1 4000 м ясно +32.8 +22.1 53 +41 +41 опасность
перегрева
997.9 1000.0
00 21.05 СЗ 2 4000 м ясно +30.8 +18.8 49 +36 +36 очень
душно
997.7 982.9
03 21.05 штиль 0 4000 м ясно +33.3 +18.3 41 +38 +45 очень
душно
999.0 984.3 +27.5
06 21.05 ЮЗ 2 10 км ясно +37.2 +21.0 39 +44 +65 опасность
перегрева
999.8 1000.0
09 21.05 ЮЗ 2 10 км ясно +40.0 +22.2 36 +48 +68 опасность
перегрева
998.4 1000.0
12 21.05 ЮЗ 2 10 км ясно +41.7 +22.4 33 +49 +55 опасность
перегрева
996.0 998.2 +44.0
15 21.05 штиль 0 4000 м ясно +38.9 +20.9 35 +45 +45 опасность
перегрева
996.7 997.0
18 21.05 ЮЗ 2 4000 м ясно +36.1 +19.7 38 +41 +41 опасность
перегрева
999.3 999.0
21 21.05 ЮЗ 1 4000 м ясно +33.3 +18.3 41 +38 +38 очень
душно
999.0 1000.0
00 22.05 4000 м н/о +32.2 +16.2 38 +35 +35 очень
душно
998.6 983.9
03 22.05 ЮЗ 3 4000 м ясно +32.8 +17.6 40 +37 +41 очень
душно
1004.0 989.3 +26.1
06 22.05 В 4 10 км ясно +37.2 +20.0 37 +43 +56 опасность
перегрева
1004.0 1004.0
09 22.05 ЮЗ 1 10 км ясно +39.4 +24.2 42 +51 +73 опасность
перегрева
1002.1 1000.0
12 22.05 ЮЗ 2 10 км ясно +41.1 +25.2 41 +54 +59 опасность
перегрева
998.9 999.3 +42.0
15 22.05 ЮЗ 2 4000 м ясно +38.9 +24.4 44 +51 +51 опасность
перегрева
1000.2 1000.0
18 22.05 В 2 4000 м ясно +37.2 +23.6 46 +48 +48 опасность
перегрева
1002.3 1000.0
21 22.05 В 1 4000 м ясно +34.4 +23.9 54 +46 +46 опасность
перегрева
1001.5 1000.0
00 23.05 штиль 0 4000 м ясно +33.9 +23.3 54 +44 +44 опасность
перегрева
1001.0 986.3
03 23.05 штиль 0 4000 м ясно +36.1 +24.0 50 +48 +55 опасность
перегрева
1002.0 987.2 +29.5
06 23.05 ЮЗ 3 10 км ясно +39.4 +25.8 46 +53 +69 опасность
перегрева
1002.6 1003.0
09 23.05 В 1 10 км ясно +42.8 +26.9 41 +58 +81 опасность
перегрева
1000.3 1000.0
12 23.05 ЮЗ 2 10 км ясно +42.8 +26.9 41 +58 +64 опасность
перегрева
997.6 999.5 +44.1
15 23.05 ЮЗ 4 4000 м слабый дождь 10/5 1200 м
[Sc diur, vesp Ac und]
+31.7 +23.6 62 +43 +43 опасность
перегрева
1000.4 1000.0 5
18 23.05 ЮЗ 2 4000 м ясно +27.8 +22.9 75 +37 +37 очень
душно
1003.8 1000.0
21 23.05 ЮЗ 2 4000 м ясно +25.1 +22.0 83 +32 +32 очень
душно
1003.3 1000.0
00 24.05 В 3 4000 м ясно +24.5 +21.5 83 +31 +31 очень
душно
1001.9 986.8
03 24.05 В 2 4000 м ясно +28.9 +21.6 65 +37 +42 очень
душно
1003.1 988.2 +24.1
06 24.05 ЮЗ 2 10 км ясно +35.0 +20.2 42 +41 +62 опасность
перегрева
1003.4 1000.0
09 24.05 ЮЗ 2 10 км ясно +41.7 +21.4 31 +48 +69 опасность
перегрева
1001.0 1000.0
12 24.05 ЮЗ 1 10 км ясно +46.1 +23.0 28 +55 +61 опасность
перегрева
998.3 999.3 +46.0
15 24.05 штиль 0 4000 м ясно +43.3 +22.3 31 +51 +51 опасность
перегрева
998.6 999.0
18 24.05 В 1 4000 м ясно +36.1 +24.0 50 +48 +48 опасность
перегрева
1000.5 1000.0
21 24.05 В 1 4000 м ясно +33.3 +24.4 60 +46 +46 опасность
перегрева
999.0 1000.0
00 25.05 С 2 4000 м ясно +31.7 +19.4 48 +37 +37 очень
душно
998.2 983.5
03 25.05 штиль 0 10 км ясно +34.4 +21.4 47 +42 +50 опасность
перегрева
1001.1 986.2 +28.1
06 25.05 ЮЗ 3 10 км ясно +40.0 +23.9 40 +51 +66 опасность
перегрева
1000.6 1001.0
09 25.05 ЮЗ 2 10 км ясно +46.1 +23.9 29 +56 +76 опасность
перегрева
997.5 1000.0
12 25.05 ЮЗ 2 10 км ясно +47.8 +25.7 30 +61 +67 опасность
перегрева
994.7 999.8 +49.1
15 25.05 штиль 0 4000 м ясно +41.7 +25.8 41 +56 +56 опасность
перегрева
995.8 1000.0
18 25.05 ЮЗ 2 4000 м ясно +37.2 +23.6 46 +48 +48 опасность
перегрева
997.3 1000.0
21 25.05 штиль 0 4000 м ясно +32.8 +23.0 56 +43 +43 опасность
перегрева
997.2 997.0
00 26.05 штиль 0 4000 м ясно +30.6 +21.7 59 +39 +39 очень
душно
996.2 981.4
03 26.05 штиль 0 10 км ясно +33.9 +23.3 54 +44 +52 опасность
перегрева
998.0 983.3 +30.1

 

Местоположение метеостанции Sibi (Пакистан): широта 29.55 долгота 67.88 высота над уровнем моря 134 м.

В архиве по умолчанию представлена погода в Sibi за последнюю неделю. Архивные данные за месяц целиком и за предыдущие месяцы, начиная с января 2011 года, Вы можете получить, выбрав интересующий диапазон дат из раскрывающегося списка и нажав кнопку "Ввод!".

Внимание! Время в таблицах - всемирное. Для получения местного времени необходимо прибавить поправку, которая в Sibi равна 5 ч.

Смотрите также архив погоды в соседних городах и на ближайших метеорологических станциях:

Погода в Quetta Airport (Пакистан) (124 км)
Погода в Kalat (Пакистан) (139 км)
Погода в Jacobabad (Пакистан) (150 км)
Погода в Barkhan (Пакистан) (181 км)
Погода в Khuzdar (Пакистан) (227 км)
Погода в Rohri (Пакистан) (232 км)
Погода в Zhob (Пакистан) (252 км)
Погода в Khanpur (Пакистан) (290 км)
Погода в Pad Idan (Пакистан) (301 км)
Погода в Dal Bandin (Пакистан) (346 км)

Пояснения к столбцам:

Ветер - указаны скорость ветра в м/с - средняя за 10 мин, порывы в срок и между сроками (в фигурных скобках) и направление, откуда дует ветер: С - северный, СВ - северо-восточный, В - восточный, ЮВ - юго-восточный, Ю - южный, ЮЗ - юго-западный, З - западный, СЗ - северо-западный.
Видимость - горизонтальная дальность видимости в метрах или километрах. При видимости от 1 до 10 км при отсутствии осадков обычно наблюдается дымка, при ухудшении видимости до 1 км и менее - туман. В сухую погоду видимость может ухудшаться дымом, пылью или мглою.
Явления - указаны атмосферные явления, наблюдавшиеся в срок или в последний час перед сроком; фигурными скобками обозначены явления, наблюдавшиеся между сроками (за 1-3 часа до срока); квадратными скобками обозначены град или гололедные отложения с указанием их диаметра в мм.
Облачность - указаны через наклонную черту общая и нижняя облачность в баллах и высота нижней границы облаков в метрах; квадратными скобками обозначены формы облаков: Ci - перистые, Cs - перисто-слоистые, Cc - перисто-кучевые, Ac - высококучевые, As - высокослоистые, Sc - слоисто-кучевые, Ns - слоисто-дождевые, Cu - кучевые, Cb - кучево-дождевые. Подробнее классификацию облаков см. в Атласе облаков (PDF).
T - Температура воздуха - температура, измеренная на высоте 2 м над землей.
Td - Температура точки росы - температура, при понижении до которой содержащийся в воздухе водяной пар достигнет насыщения.
f - Относительная влажность воздуха - влажноcть воздуха, измеренная на высоте 2 м над землей.
Te - Эффективная температура - температура, которую ощущает одетый по сезону человек в тени. Характеристика душности погоды. При расчете учитывается влияние влажности воздуха и скорости ветра на теплоощущения человека.
Tes - Эффективная температура на солнце - температура, которую ощущает человек, с поправкой на солнечный нагрев. Характеристика знойности погоды. Зависит от высоты солнца над горизонтом, облачности и скорости ветра. Ночью, в пасмурную погоду, а также при ветре 12 м/с и более поправка равна нулю.
P - Атмосферное давление - приведенное к уровню моря атмосферное давление.
Po - Атмосферное давление - измеренное на уровне метеостанции атмосферное давление.
Tmin - Минимальная температура - минимум температуры воздуха на высоте 2 м над землей.
Tmax - Максимальная температура - максимум температуры воздуха на высоте 2 м над землей.
R - Количество осадков - Количество выпавших осадков за период времени, мм. При наведении курсора мыши на число - период времени, за который выпало указанное количество осадков.
R24 - Количество осадков - Количество выпавших осадков за 24 часа, мм.
S - Снежный покров - Высота снежного покрова, см. При наведении курсора мыши на число - состояние снежного покрова и степень покрытия местности в баллах.